Location: Plzen
(49.7500°N, 13.3670°E)
Time: 04:12:31
(UTC+02:00)

ISS - Pass Details

Date: 21 May 2021
Orbit: 417 x 422 km, 51.6° (Epoch: 13 June)

Event Time Altitude Azimuth Distance (km) Brightness Sun altitude
Rises 23:44:29 0° 285° (WNW) 2,368 0.6 -17.7°
Reaches altitude 10° 23:46:35 10° 287° (WNW) 1,504 -0.5 -17.8°
Maximum altitude 23:49:58 80° 14° (NNE) 432 -3.7 -18.0°
Enters shadow 23:51:11 37° 97° (E) 677 -3.0 -18.1°
